User: anonymous   Login
Location: Arbon
(43.0005°N, 0.7472°E)
Time: 23:17:18
(UTC+00:00)
Language:

Transit 2A Rocket - Orbit

View from above orbital plane
View from above orbital plane
View from above satellite
View from above satellite

Ground track
Ground track

The orbit data is extracted from the following two-line orbital elements,

1 00047U 60007C   21127.36859613 -.00000008  00000-0  23306-4 0  9995
2 00047  66.6677   8.8694 0220645  65.4350 296.9574 14.42149132181382
Epoch (UTC): 07 May 2021 08:50:46
Eccentricity: 0.0220645
inclination: 66.6677°
perigee height: 594 km
apogee height: 909 km
right ascension of ascending node: 8.8694°
argument of perigee: 65.4350°
revolutions per day: 14.42149132
mean anomaly at epoch: 296.9574°
orbit number at epoch: 18138

The dashed part of the orbit path shows where the satellite is in the earth's shadow,  

DLR